Regional Weather Roundup
Issued by NWS

Home | Current Version | Previous Version | Graphics & Text | Print | Product List | Glossary On
Versions: 1 2 3 4 5 6 7 8 9 10 11 12 13 14 15 16 17 18 19 20 21 22 23 24 25 26 27 28 29 30 31 32 33 34 35 36 37 38 39 40 41 42 43 44 45 46 47 48 49 50
000
ASUS43 KLMK 252210
RWRKY
KENTUCKY REGIONAL WEATHER ROUNDUP
NATIONAL WEATHER SERVICE LOUISVILLE KY
600 PM EDT FRI MAY 25 2018

NOTE "FAIR" INDICATES FEW OR NO CLOUDS BELOW 12,000 FEET
WITH NO SIGNIFICANT WEATHER AND/OR OBSTRUCTIONS TO VISIBILITY.

KYZ001>023-026-027-061>063-070>075-252300-
WESTERN AND SOUTH CENTRAL KENTUCKY

CITY           SKY/WX    TMP DP  RH WIND       PRES   REMARKS
PADUCAH        CLOUDY    74  68  81 NW14G21   29.92R
HENDERSON      NOT AVBL
OWENSBORO      FAIR      84  68  58 W9        29.87F
HOPKINSVILLE   FAIR      79  69  70 SW7       29.89F
BOWLING GREEN  FAIR      88  62  41 VRB3      29.88F
GLASGOW        FAIR      89  60  37 SW5       29.90F
$$

KYZ024-025-028>034-038-045-046-053-252300-
NORTH CENTRAL KENTUCKY

CITY           SKY/WX    TMP DP  RH WIND       PRES   REMARKS
LOUISVILLE/SDF PTSUNNY   88  58  36 S10G18    29.86F
LOUISVILLE/LOU FAIR      87  60  40 S7        29.87F
FORT KNOX      FAIR      86  57  37 S5        29.89F
$$

KYZ035>037-039>044-047>052-055>060-089>105-252300-
NORTHEAST KENTUCKY

CITY           SKY/WX    TMP DP  RH WIND       PRES   REMARKS
LEXINGTON      PTSUNNY   85  62  46 SW5       29.91F
COVINGTON      FAIR      84  58  40 SW6       29.89F
FRANKFORT      FAIR      85  60  42 SW6       29.88F
$$

KYZ054-064>069-076>088-106>120-252300-
SOUTHEAST KENTUCKY

CITY           SKY/WX    TMP DP  RH WIND       PRES   REMARKS
JACKSON        FAIR      85  66  53 CALM      29.94F
LONDON         FAIR      86  63  45 NW6       29.93S
SOMERSET       FAIR      86  63  45 MISG      29.93R
MIDDLESBORO    FAIR      86  67  52 SW3       29.94S
MONTICELLO     FAIR      88  64  44 W9G16     29.93S
$$





USA.gov is the U.S. government's official web portal to all federal, state and local government web resources and services.